sat.trackr.live / text

‹ back to catalog

STARLINK-36054

NORAD 66812 · 2025-278X

PAYLOAD ACTIVE UNKNOWN

§ Identity

Operator
Country
US
Launch date
2025-12-01
Launch site
AFETR
Launch vehicle
Mass (kg)
RCS (m²)

Purposes: comms

External: N2YO · Heavens-Above · Gunter

§ Orbital elements

Epoch: 2026-09-20T21:35:18.206592Z

Period
94.27 min
Inclination
43.0023°
Eccentricity
0.0001358
Mean motion
15.27586171 rev/d
Perigee alt
482.1 km
Apogee alt
484.0 km
Semi-major
6,861.2 km
B*
2.9330e-4
RAAN
91.9459°
Arg perigee
271.3081°
Mean anomaly
88.7615°
Rev number
4,506

§ Raw data

STARLINK-360541 66812U 25278X   26263.89951628  .00007819  00000+0  29330-3 0  99982 66812  43.0023  91.9459 0001358 271.3081  88.7615 15.27586171 45066

JSON: /api/v1/satellites/66812 · /tle

For live sub-satellite position, see the globe view (requires WebGL).

§ Visibility from observer

Set your observer location to see the next 7 days of passes ≥ 10°. The values pass through the URL so the page stays shareable.

No JS? Fill the form by hand. The geolocation button needs JavaScript.